Flag for Canada Weather past 2 weeks in Timmins, Ontario, Canada

Now
50 °F

Passing clouds.


Feels Like: 50 °F
Forecast: 42 / 76 °F
Wind: 2 mph from West

Location: Timmins

Current Time: May 23, 2015 at 11:39:34 PM

Latest Report: May 23, 2015 at 10:50 PM


Visibility: 15 mi

Pressure: 30.03 "Hg

Humidity: 94%

Dew point: 48 °F

Location of TimminsLocation

Historic Weather in Timmins — Graph

°F

Timmins temperature yesterday

Maximum temperature yesterday: 43 °F (at 7:00 PM)
Minimum temperature yesterday: 27 °F (at 3:00 AM)
Average temperature yesterday: 33 °F

Past Weeks' High & Low Weather Summary

 TemperatureHumidityPressure
High79 °F (May 17, 3:00 PM)100% (May 11, 7:00 PM)30.40 "Hg (May 11, 7:00 PM)
Low27 °F (May 13, 5:00 AM)21% (May 13, 5:00 PM)29.65 "Hg (May 12, 1:00 AM)
Average46 °F70%30.07 "Hg
* Reported May 8 10:00 PM — May 23 10:00 PM, Timmins, Weather by CustomWeather, © 2015

Note: Actual official high and low records may vary slightly from our data, if they occured in-between our weather recording intervals... More about our weather records

Advertising

Timmins weather history for previous 24 hours

 ConditionsComfort  
Time TempWeatherWind HumidityBarometerVisibility
10:00 PM
Sat, May 23
52 °FSprinkles. Partly sunny.2 mph94%30.03 "Hg15 mi
9:00 PM54 °FSprinkles. Partly sunny.7 mph94%30.03 "Hg15 mi
8:00 PM54 °FSprinkles. Partly sunny.7 mph94%30.05 "Hg15 mi
7:00 PM55 °FThunderstorms. Partly sunny.9 mph88%30.03 "Hg15 mi
6:00 PM75 °FSprinkles. Partly sunny.10 mph25%29.90 "Hg15 mi
5:55 PM73 °FSprinkles. Partly sunny.15 mph27%29.90 "Hg15 mi
5:00 PM77 °FPartly sunny.18 mph26%29.91 "Hg15 mi
4:00 PM75 °FScattered clouds.14 mph27%29.93 "Hg15 mi
3:00 PM73 °FPassing clouds.18 mph29%29.92 "Hg15 mi
2:00 PM70 °FPassing clouds.13 mph31%29.93 "Hg15 mi
1:00 PM64 °FPassing clouds.12 mph34%29.98 "Hg15 mi
12:00 PM59 °FPartly sunny.13 mph36%30.00 "Hg15 mi
11:00 AM52 °FPartly sunny.13 mph47%30.05 "Hg15 mi
10:00 AM45 °FPartly sunny.12 mph57%30.11 "Hg15 mi
9:00 AM37 °FLight rain. Partly sunny.8 mph70%30.15 "Hg15 mi
8:00 AM37 °FPartly sunny.8 mph60%30.16 "Hg15 mi
7:00 AM34 °FPartly sunny.8 mph70%30.17 "Hg15 mi
6:00 AM28 °FPassing clouds.8 mph80%30.17 "Hg15 mi
5:00 AM28 °FPassing clouds.8 mph74%30.18 "Hg15 mi
4:00 AM28 °FPassing clouds.6 mph74%30.20 "Hg15 mi
3:00 AM27 °FPassing clouds.6 mph80%30.22 "Hg15 mi
2:00 AM27 °FClear.6 mph80%30.22 "Hg15 mi
1:00 AM28 °FClear.6 mph80%30.23 "Hg15 mi
12:00 AM28 °FClear.5 mph80%30.24 "Hg15 mi
11:00 PM
Fri, May 22
28 °FClear.2 mph74%30.24 "Hg15 mi
Weather by CustomWeather, © 2015

See weather overviewHow to use our weather pages